WetterOnline ( http://www.wetteronline.de )

Wetter aktuell Sauerland (in 400m)

Aktuelles Wetter: Lüdenscheid (392m)

6-stündlich | Neueste Meldungen
Ortszeit Temperatur Wetter
Mo, 19.02. 19:00 0.6° C bedeckt
Mo, 19.02. 13:00 1.4° C bedeckt
Mo, 19.02. 7:00 -2.3° C bedeckt
Mo, 19.02. 1:00 -1.0° C bedeckt
So, 18.02. 19:00 1.5° C bedeckt
So, 18.02. 13:00 3.1° C wolkig
So, 18.02. 7:00 -3.4° C wolkenlos
So, 18.02. 1:00 -3.4° C wolkenlos
Ortszeit Temperatur Wetter
Mo, 19.02. 20:30 -0.2° C bedeckt
Mo, 19.02. 20:20 -0.2° C bedeckt
Mo, 19.02. 20:10 -0.0° C bedeckt
Mo, 19.02. 20:00 0.2° C bedeckt
Mo, 19.02. 19:50 0.2° C bedeckt
Mo, 19.02. 19:40 0.4° C bedeckt
Mo, 19.02. 19:30 0.4° C bedeckt
Mo, 19.02. 19:00 0.6° C bedeckt
Mo, 19.02. 18:30 0.8° C bedeckt
Mo, 19.02. 18:00 1.1° C bedeckt
Mo, 19.02. 17:30 1.4° C bedeckt
Ortszeit Relative Feuchte Sichtweite
Mo, 19.02. 19:00 73% 12 km
Mo, 19.02. 13:00 69% 14 km
Mo, 19.02. 7:00 83% 9 km
Mo, 19.02. 1:00 79% 11 km
So, 18.02. 19:00 64% 18 km
So, 18.02. 13:00 62% 12 km
So, 18.02. 7:00 89% 7 km
So, 18.02. 1:00 89% 9 km
Ortszeit Relative Feuchte Sichtweite
Mo, 19.02. 20:30 78% 12 km
Mo, 19.02. 20:20 78% -
Mo, 19.02. 20:10 77% -
Mo, 19.02. 20:00 76% 13 km
Mo, 19.02. 19:50 76% -
Mo, 19.02. 19:40 75% -
Mo, 19.02. 19:30 76% 12 km
Mo, 19.02. 19:00 73% 12 km
Mo, 19.02. 18:30 72% 14 km
Mo, 19.02. 18:00 71% 14 km
Mo, 19.02. 17:30 70% 14 km
Ortszeit Niederschlagsmenge Niederschlagsart
Mo, 19.02. 19:00 0.0 l/m2 in 12 Std. -
Mo, 19.02. 13:00 0.0 l/m2 in 6 Std. -
Mo, 19.02. 7:00 0.0 l/m2 in 12 Std. -
Mo, 19.02. 1:00 0.0 l/m2 in 6 Std. -
So, 18.02. 19:00 0.0 l/m2 in 12 Std. -
So, 18.02. 13:00 0.0 l/m2 in 6 Std. -
So, 18.02. 7:00 0.0 l/m2 in 12 Std. -
So, 18.02. 1:00 0.0 l/m2 in 6 Std. -
Ortszeit Niederschlagsmenge Niederschlagsart
Mo, 19.02. 20:30 0.0 l/m2 in 1 Std. -
Mo, 19.02. 20:20 keine Meldung -
Mo, 19.02. 20:10 keine Meldung -
Mo, 19.02. 20:00 0.0 l/m2 in 1 Std. -
Mo, 19.02. 19:50 keine Meldung -
Mo, 19.02. 19:40 keine Meldung -
Mo, 19.02. 19:30 0.0 l/m2 in 1 Std. -
Mo, 19.02. 19:00 0.0 l/m2 in 1 Std. -
Mo, 19.02. 18:30 0.0 l/m2 in 1 Std. -
Mo, 19.02. 18:00 0.0 l/m2 in 1 Std. -
Mo, 19.02. 17:30 0.0 l/m2 in 1 Std. -
Ortszeit Stärke Spitze Richtung
km/h Bft. km/h Grad Sektor
Mo, 19.02. 19:00 0 0 14 - -
Mo, 19.02. 13:00 7 2 22 120° SO
Mo, 19.02. 7:00 9 2 17 180° S
Mo, 19.02. 1:00 4 1 14 200° S
So, 18.02. 19:00 4 1 29 180° S
So, 18.02. 13:00 14 3 29 170° S
So, 18.02. 7:00 4 1 7 80° O
So, 18.02. 1:00 4 1 7 90° O
Ortszeit Stärke Spitze Richtung
km/h Bft. km/h Grad Sektor
Mo, 19.02. 20:30 6 1 6 280° W
Mo, 19.02. 20:20 6 1 - 280° W
Mo, 19.02. 20:10 4 1 - 270° W
Mo, 19.02. 20:00 2 1 4 270° W
Mo, 19.02. 19:50 2 1 - 270° W
Mo, 19.02. 19:40 2 1 - 280° W
Mo, 19.02. 19:30 0 0 4 - -
Mo, 19.02. 19:00 0 0 4 - -
Mo, 19.02. 18:30 4 1 4 290° W
Mo, 19.02. 18:00 4 1 7 280° W
Mo, 19.02. 17:30 6 1 7 280° W
Ortszeit Untergrenze Bedeckung Gattung
total tief tief mittel hoch
Mo, 19.02. 19:00 1800 m 8/8 8/8 - - -
Mo, 19.02. 13:00 2700 m 8/8 8/8 - - -
Mo, 19.02. 7:00 3000 m 8/8 8/8 - - -
Mo, 19.02. 1:00 5400 m 8/8 8/8 - - -
So, 18.02. 19:00 3600 m 8/8 8/8 - - -
So, 18.02. 13:00 6900 m 7/8 4/8 - - -
So, 18.02. 7:00 - 0/8 0/8 - - -
So, 18.02. 1:00 - 0/8 0/8 - - -
Ortszeit Bedeckungsgrad in Achtel und Wolkenuntergrenze
Mo, 19.02. 20:30 8(1800m) 8(2700m)
Mo, 19.02. 20:20 8(1800m) 8(2700m)
Mo, 19.02. 20:10 7(1800m) 8(2100m) 8(2700m)
Mo, 19.02. 20:00 8(1800m) 8(2700m)
Mo, 19.02. 19:50 8(1800m) 8(2700m)
Mo, 19.02. 19:40 8(1800m) 8(2700m)
Mo, 19.02. 19:30 8(1800m) 8(2700m)
Mo, 19.02. 19:00 8(1800m) 8(2100m)
Mo, 19.02. 18:30 8(1800m) 8(3600m) 8(3600m)
Mo, 19.02. 18:00 8(1800m) 8(2700m) 8(3600m)
Mo, 19.02. 17:30 8(1800m) 8(2700m) 8(3600m)
Ortszeit Luftdruck NN (hPa) Tendenz (hPa in 3 Std.)
Mo, 19.02. 19:00 1019 - 0,2
Mo, 19.02. 13:00 1020 - 0,9
Mo, 19.02. 7:00 1023 - 0,9
Mo, 19.02. 1:00 1025 - 0,7
So, 18.02. 19:00 1026 - 0,5
So, 18.02. 13:00 1027 + 0,1
So, 18.02. 7:00 1028 - 0,1
So, 18.02. 1:00 1028 + 0,9
Ortszeit Luftdruck NN (hPa) Tendenz (hPa in 3 Std.)
Mo, 19.02. 20:30 1019 - 0,1
Mo, 19.02. 20:20 1019 keine Meldung
Mo, 19.02. 20:10 1019 keine Meldung
Mo, 19.02. 20:00 1019 - 0,1
Mo, 19.02. 19:50 1019 keine Meldung
Mo, 19.02. 19:40 1018 keine Meldung
Mo, 19.02. 19:30 1019 - 0,1
Mo, 19.02. 19:00 1019 - 0,2
Mo, 19.02. 18:30 1019 - 0,5
Mo, 19.02. 18:00 1018 - 0,6
Mo, 19.02. 17:30 1019 - 0,7
Ortszeit Schneehöhe (cm)
Mo, 19.02. 19:00 -
Mo, 19.02. 13:00 -
Mo, 19.02. 7:00 2
Mo, 19.02. 1:00 2
So, 18.02. 19:00 2
So, 18.02. 13:00 3
So, 18.02. 7:00 3
So, 18.02. 1:00 3
Ortszeit Schneehöhe (cm)
Mo, 19.02. 20:30 1
Mo, 19.02. 20:20 1
Mo, 19.02. 20:10 1
Mo, 19.02. 20:00 -
Mo, 19.02. 19:50 -
Mo, 19.02. 19:40 -
Mo, 19.02. 19:30 -
Mo, 19.02. 19:00 -
Mo, 19.02. 18:30 -
Mo, 19.02. 18:00 -
Mo, 19.02. 17:30 -
Link zu dieser Seite / Seite empfehlen

Das Wetter in ...